Location: Albany
(35.0170°S, 117.8920°E)
Time: 02:04:36
(UTC+08:00)

Envisat - Pass Details

Date: 03 December 2020
Orbit: 764 x 766 km, 98.1° (Epoch: 16 January)

Event Time Altitude Azimuth Distance (km) Brightness Sun altitude
Rises 04:07:03 0° 52° (NE) 3,227 6.5 -7.9°
Reaches altitude 10° 04:09:56 10° 69° (ENE) 2,310 6.0 -7.4°
Maximum altitude 04:13:28 19° 113° (ESE) 1,761 6.2 -6.8°
Drops below altitude 10° 04:17:02 10° 158° (SSE) 2,329 6.5 -6.2°
Sets 04:19:57 0° 174° (S) 3,264 6.9 -5.7°
